FW9444 Weather Reports


time (UTC)temp
F
wind
direction
speed
knots
gust
knots
rain 1hr
in
rain 24hr
in
rain mn
in
humidity
%
barometer
mb
20260506044556 70 215 0.9 1.7 0.00 0.00 0.00 70 1007.1
20260506044052 70 175 0.9 2.6 0.00 0.00 0.00 70 1007.1
20260506043549 70 246 0.0 0.0 0.00 0.00 0.00 70 1007.1
20260506043048 70 169 0.0 0.0 0.00 0.00 0.00 70 1006.9
20260506042547 71 202 0.0 0.0 0.00 0.00 0.00 69 1007.3
20260506042044 71 212 0.0 0.0 0.00 0.00 0.00 69 1007.1
20260506041543 71 174 0.0 0.9 0.00 0.00 0.00 69 1007.2
20260506041039 71 206 0.0 0.9 0.00 0.00 0.00 69 1007.2
20260506040537 71 199 0.0 0.9 0.00 0.00 0.00 69 1007.0
20260506040032 71 204 0.0 0.9 0.00 0.00 0.00 69 1007.2
20260506035530 71 175 0.0 0.0 0.00 0.00 0.00 69 1007.1
20260506035026 71 193 0.0 0.0 0.00 0.00 0.00 69 1007.2
20260506034524 71 196 0.0 0.0 0.00 0.00 0.00 69 1007.1
20260506034020 71 213 0.0 1.7 0.00 0.00 0.00 69 1007.0
20260506033518 71 147 3.5 5.2 0.00 0.00 0.00 69 1007.2
20260506033015 71 146 1.7 2.6 0.00 0.00 0.00 69 1007.2
20260506032512 71 180 0.9 1.7 0.00 0.00 0.00 69 1007.0
20260506032008 71 175 0.0 0.0 0.00 0.00 0.00 69 1007.2
20260506031507 71 167 0.0 0.0 0.00 0.00 0.00 69 1007.1
20260506031003 71 186 0.0 0.0 0.00 0.00 0.00 69 1007.2
20260506030501 71 152 3.5 5.2 0.00 0.00 0.00 68 1007.1
20260506025958 71 171 0.9 1.7 0.00 0.00 0.00 68 1007.0
20260506025455 71 229 2.6 4.3 0.00 0.00 0.00 68 1007.0
20260506024951 71 197 0.0 0.0 0.00 0.00 0.00 68 1007.3
20260506024448 71 128 0.9 1.7 0.00 0.00 0.00 68 1006.9
20260506023944 71 180 0.0 0.9 0.00 0.00 0.00 68 1007.0
20260506023441 71 193 0.0 0.0 0.00 0.00 0.00 69 1006.8
20260506022938 71 168 0.0 0.9 0.00 0.00 0.00 69 1006.9
20260506022435 71 228 0.0 0.9 0.00 0.00 0.00 69 1007.1
20260506021933 71 149 0.0 0.9 0.00 0.00 0.00 69 1007.0
20260506021430 71 180 2.6 5.2 0.00 0.00 0.00 69 1007.0
20260506020927 71 204 2.6 2.6 0.00 0.00 0.00 69 1006.4
20260506020425 71 204 0.0 0.9 0.00 0.00 0.00 69 1006.6
20260506015922 71 179 1.7 2.6 0.00 0.00 0.00 69 1006.1
20260506015420 71 193 0.0 0.0 0.00 0.00 0.00 69 1006.1
20260506014916 71 226 1.7 2.6 0.00 0.00 0.00 69 1006.3
20260506014413 71 206 0.0 0.9 0.00 0.00 0.00 69 1006.6
20260506013910 71 214 0.9 4.3 0.00 0.00 0.00 69 1006.9
20260506013408 71 196 0.0 0.0 0.00 0.00 0.00 69 1006.9
20260506012903 71 189 0.0 0.0 0.00 0.00 0.00 68 1006.9
20260506012401 71 177 0.0 0.0 0.00 0.00 0.00 68 1006.9
20260506011858 71 209 0.0 0.9 0.00 0.00 0.00 68 1006.9
20260506011355 71 202 0.9 2.6 0.00 0.00 0.00 68 1006.6
20260506010852 71 212 0.9 1.7 0.00 0.00 0.00 68 1006.8
20260506010350 71 228 0.0 0.0 0.00 0.00 0.00 68 1006.7
20260506005847 71 192 2.6 4.3 0.00 0.00 0.00 67 1006.7
20260506005344 71 202 0.9 1.7 0.00 0.00 0.00 67 1006.7
20260506004839 71 177 3.5 4.3 0.00 0.00 0.00 66 1006.4
20260506004337 71 197 3.5 5.2 0.00 0.00 0.00 66 1006.4
20260506003833 71 201 0.9 1.7 0.00 0.00 0.00 66 1006.3
20260506003329 71 210 0.9 4.3 0.00 0.00 0.00 66 1006.7
20260506002826 71 193 0.0 0.9 0.00 0.00 0.00 66 1006.7
20260506002323 71 206 0.0 0.0 0.00 0.00 0.00 66 1006.6
20260506001818 72 147 0.9 1.7 0.00 0.00 0.00 65 1006.7
20260506001316 72 170 0.0 0.9 0.00 0.00 0.00 65 1006.3
20260506000812 72 134 3.5 5.2 0.00 0.00 0.00 65 1006.4
20260506000310 72 192 0.9 2.6 0.00 0.00 0.00 64 1006.4
20260505235806 72 176 0.9 1.7 0.00 0.00 0.00 64 1006.7
20260505235305 72 210 0.9 1.7 0.00 0.00 0.00 64 1006.6
20260505234801 72 204 1.7 2.6 0.00 0.00 0.00 63 1006.7
20260505234259 72 202 0.9 1.7 0.00 0.00 0.00 63 1006.6
20260505233755 72 179 5.2 6.1 0.00 0.00 0.00 63 1006.7
20260505233253 72 201 2.6 4.3 0.00 0.00 0.00 63 1007.0
20260505232750 72 167 2.6 4.3 0.00 0.00 0.00 63 1006.9
20260505232248 72 197 1.7 2.6 0.00 0.00 0.00 63 1007.1
20260505231744 73 232 0.9 0.9 0.00 0.00 0.00 63 1007.2
20260505231243 73 194 1.7 4.3 0.00 0.00 0.00 62 1007.4
20260505230741 73 167 0.9 0.9 0.00 0.00 0.00 62 1007.5
20260505230237 73 231 2.6 4.3 0.00 0.00 0.00 62 1007.6
20260505225734 73 208 1.7 2.6 0.00 0.00 0.00 62 1007.4
20260505225231 73 207 2.6 2.6 0.00 0.00 0.00 62 1007.4
20260505224726 73 174 1.7 2.6 0.00 0.00 0.00 61 1007.3
20260505224224 73 186 0.9 1.7 0.00 0.00 0.00 62 1007.4
20260505223721 73 206 1.7 1.7 0.00 0.00 0.00 61 1007.4
20260505223217 73 208 2.6 4.3 0.00 0.00 0.00 61 1007.5
20260505222713 73 206 2.6 4.3 0.00 0.00 0.00 61 1007.9
20260505222209 73 176 3.5 7.0 0.00 0.00 0.00 61 1007.6
20260505221707 73 280 4.3 5.2 0.00 0.00 0.00 61 1007.7
20260505221203 73 162 2.6 2.6 0.00 0.00 0.00 61 1007.7
20260505220700 73 180 2.6 2.6 0.00 0.00 0.00 61 1007.7
20260505220159 73 186 4.3 7.8 0.00 0.00 0.00 61 1007.6
20260505215656 73 206 2.6 4.3 0.00 0.00 0.00 61 1007.7
20260505215154 73 215 2.6 4.3 0.00 0.00 0.00 60 1008.0
20260505214651 73 203 0.0 0.0 0.00 0.00 0.00 60 1007.8
20260505214148 73 167 2.6 4.3 0.00 0.00 0.00 59 1007.5
20260505213646 73 212 2.6 4.3 0.00 0.00 0.00 59 1007.8
20260505213142 73 167 4.3 6.1 0.00 0.00 0.00 58 1007.7
20260505212638 73 175 2.6 2.6 0.00 0.00 0.00 58 1007.9
20260505212136 74 152 1.7 1.7 0.00 0.00 0.00 56 1007.9
20260505211633 74 184 1.7 2.6 0.00 0.00 0.00 56 1007.8
20260505211130 74 195 2.6 2.6 0.00 0.00 0.00 56 1007.9
20260505210627 75 160 2.6 2.6 0.00 0.00 0.00 57 1007.7
20260505210123 75 128 7.0 11.3 0.00 0.00 0.00 55 1007.7
20260505205621 74 157 4.3 6.1 0.00 0.00 0.00 56 1007.9
20260505205119 74 198 2.6 4.3 0.00 0.00 0.00 56 1007.7
20260505204616 73 219 2.6 5.2 0.00 0.00 0.00 56 1007.7
20260505204114 73 168 1.7 1.7 0.00 0.00 0.00 57 1007.6
20260505203610 73 212 0.9 0.9 0.00 0.00 0.00 57 1007.5
20260505203107 73 184 5.2 7.0 0.00 0.00 0.00 56 1007.5
20260505202602 73 150 4.3 6.1 0.00 0.00 0.00 56 1007.5
20260505202059 74 167 3.5 4.3 0.00 0.00 0.00 55 1007.4
20260505201556 74 194 1.7 2.6 0.00 0.00 0.00 55 1007.6
20260505201054 74 160 1.7 2.6 0.00 0.00 0.00 56 1007.7
20260505200551 73 153 6.1 8.7 0.00 0.00 0.00 55 1007.8
20260505200048 73 165 3.5 6.1 0.00 0.00 0.00 56 1007.6
20260505195544 73 188 1.7 2.6 0.00 0.00 0.00 56 1007.7
20260505195042 72 197 0.0 0.9 0.00 0.00 0.00 57 1007.8
20260505194538 73 192 3.5 4.3 0.00 0.00 0.00 54 1007.8
20260505194034 73 179 1.7 2.6 0.00 0.00 0.00 56 1007.7
20260505193531 72 190 0.9 1.7 0.00 0.00 0.00 58 1007.7
20260505193028 72 205 1.7 1.7 0.00 0.00 0.00 57 1007.9
20260505192527 72 153 2.6 4.3 0.00 0.00 0.00 58 1008.0
20260505192024 72 155 2.6 2.6 0.00 0.00 0.00 57 1008.0
20260505191522 73 192 0.9 0.9 0.00 0.00 0.00 56 1008.3
20260505191020 73 235 1.7 2.6 0.00 0.00 0.00 53 1008.7
20260505190514 73 222 3.5 5.2 0.00 0.00 0.00 53 1009.0
20260505190011 74 198 2.6 2.6 0.00 0.00 0.00 52 1009.2
20260505185508 74 219 1.7 4.3 0.00 0.00 0.00 52 1009.6
20260505185004 75 221 2.6 2.6 0.00 0.00 0.00 51 1009.8
20260505184501 74 266 1.7 1.7 0.00 0.00 0.00 50 1009.8
20260505183957 75 244 2.6 4.3 0.00 0.00 0.00 49 1009.7
20260505183455 75 231 0.0 0.0 0.00 0.00 0.00 48 1009.7
20260505182951 76 204 3.5 4.3 0.00 0.00 0.00 46 1009.8
20260505182448 76 231 2.6 2.6 0.00 0.00 0.00 45 1009.8
20260505181944 77 245 2.6 5.2 0.00 0.00 0.00 45 1009.5
20260505181442 77 284 0.0 0.9 0.00 0.00 0.00 47 1009.9
20260505180939 76 210 0.9 1.7 0.00 0.00 0.00 48 1009.8
20260505180435 76 208 0.9 1.7 0.00 0.00 0.00 50 1010.0
20260505175932 76 252 2.6 5.2 0.00 0.00 0.00 45 1009.8
20260505175428 77 219 2.6 4.3 0.00 0.00 0.00 45 1009.6
20260505174924 78 232 2.6 7.0 0.00 0.00 0.00 46 1009.7
20260505174422 77 224 0.0 0.9 0.00 0.00 0.00 45 1009.9
20260505173918 77 223 4.3 6.1 0.00 0.00 0.00 44 1009.9
20260505173414 77 205 0.0 0.0 0.00 0.00 0.00 47 1009.7
20260505172911 76 219 1.7 2.6 0.00 0.00 0.00 45 1010.0
20260505172409 76 169 0.0 0.0 0.00 0.00 0.00 48 1009.9
20260505171909 75 260 0.0 0.9 0.00 0.00 0.00 48 1010.0
20260505171406 76 186 0.0 0.9 0.00 0.00 0.00 50 1010.3
20260505170902 75 188 0.0 0.9 0.00 0.00 0.00 52 1010.1
20260505170359 75 214 2.6 4.3 0.00 0.00 0.00 49 1010.5
20260505165855 76 231 2.6 7.0 0.00 0.00 0.00 50 1010.2
20260505165350 75 204 0.9 2.6 0.00 0.00 0.00 52 1010.4
20260505164846 75 224 0.0 0.9 0.00 0.00 0.00 49 1010.3
20260505164343 75 190 1.7 5.2 0.00 0.00 0.00 50 1010.4
20260505163841 75 200 2.6 6.1 0.00 0.00 0.00 51 1010.6
20260505163340 76 250 1.7 1.7 0.00 0.00 0.00 53 1010.4
20260505162838 74 201 3.5 7.0 0.00 0.00 0.00 51 1010.4
20260505162334 75 218 3.5 6.1 0.00 0.00 0.00 50 1010.4
20260505161831 75 212 1.7 2.6 0.00 0.00 0.00 51 1010.3
20260505161328 75 243 1.7 4.3 0.00 0.00 0.00 53 1010.4
20260505160825 73 207 1.7 5.2 0.00 0.00 0.00 52 1010.3
20260505160323 73 170 2.6 2.6 0.00 0.00 0.00 51 1010.1
20260505153302 72 184 4.3 6.1 0.00 0.00 0.00 58 1010.3
20260505152759 71 194 0.9 1.7 0.00 0.00 0.00 61 1010.1
20260505152255 71 196 1.7 2.6 0.00 0.00 0.00 61 1010.1
20260505151749 71 166 2.6 2.6 0.00 0.00 0.00 59 1010.1
20260505151247 71 200 3.5 4.3 0.00 0.00 0.00 59 1010.3
20260505150744 71 319 2.6 4.3 0.00 0.00 0.00 60 1010.4
20260505150241 71 198 0.9 1.7 0.00 0.00 0.00 61 1010.3
20260505140206 65 178 0.9 2.6 0.00 0.00 0.00 74 1010.5
20260505130130 61 196 1.7 1.7 0.00 0.00 0.00 78 1010.4
20260505124619 60 184 0.0 0.9 0.00 0.00 0.00 80 1010.3
20260505124115 60 185 0.0 0.9 0.00 0.00 0.00 80 1010.1
20260505123612 60 190 0.9 0.9 0.00 0.00 0.00 80 1010.2
20260505123108 60 178 0.9 0.9 0.00 0.00 0.00 80 1010.1
20260505122605 59 189 0.9 0.9 0.00 0.00 0.00 81 1009.9
20260505122102 59 195 0.9 0.9 0.00 0.00 0.00 82 1010.0
20260505121559 58 163 1.7 2.6 0.00 0.00 0.00 83 1010.0
20260505121056 57 183 0.0 0.0 0.00 0.00 0.00 85 1010.1
20260505120552 56 188 0.9 0.9 0.00 0.00 0.00 87 1009.9
20260505120048 55 172 0.0 0.0 0.00 0.00 0.00 88 1010.0
20260505115542 55 167 0.9 0.9 0.00 0.00 0.00 89 1010.0
20260505115040 54 184 0.0 0.0 0.00 0.00 0.00 89 1009.8
20260505114537 54 184 0.0 0.0 0.00 0.00 0.00 89 1009.8
20260505114033 54 176 0.0 0.0 0.00 0.00 0.00 88 1009.8
20260505113530 54 176 0.0 0.0 0.00 0.00 0.00 88 1009.5
20260505113026 54 176 0.0 0.0 0.00 0.00 0.00 89 1009.4
20260505112522 54 190 0.0 0.0 0.00 0.00 0.00 88 1009.1
20260505112015 54 190 0.0 0.0 0.00 0.00 0.00 87 1008.9
20260505111508 54 190 0.0 0.0 0.00 0.00 0.00 87 1009.2
20260505111004 54 190 0.0 0.0 0.00 0.00 0.00 86 1009.0
20260505110501 54 190 0.0 0.0 0.00 0.00 0.00 85 1009.2
20260505101933 57 184 0.0 0.0 0.00 0.00 0.00 79 1008.7
20260505101432 58 171 0.0 0.9 0.00 0.00 0.00 79 1008.6
20260505100928 58 172 0.0 0.0 0.00 0.00 0.00 79 1008.3
20260505100425 58 176 0.9 0.9 0.00 0.00 0.00 78 1008.3
20260505095921 58 182 0.0 0.9 0.00 0.00 0.00 77 1008.3
20260505095419 58 192 0.9 0.9 0.00 0.00 0.00 77 1008.5
20260505094914 58 184 0.0 0.0 0.00 0.00 0.00 77 1008.2
20260505094412 58 180 0.0 0.9 0.00 0.00 0.00 77 1008.1
20260505093907 58 179 0.9 2.6 0.00 0.00 0.00 77 1008.1
20260505093404 58 179 0.0 0.0 0.00 0.00 0.00 77 1008.1
20260505092902 59 187 0.0 0.0 0.00 0.00 0.00 76 1008.1
20260505092400 59 182 1.7 2.6 0.00 0.00 0.00 76 1008.1
20260505091857 59 194 0.9 0.9 0.00 0.00 0.00 76 1008.2
20260505091355 59 180 0.9 0.9 0.00 0.00 0.00 76 1008.2
20260505090852 59 177 0.9 0.9 0.00 0.00 0.00 75 1008.4
20260505090350 59 178 1.7 1.7 0.00 0.00 0.00 75 1008.3
20260505085847 59 162 0.9 1.7 0.00 0.00 0.00 74 1008.3
20260505085345 59 180 0.9 0.9 0.00 0.00 0.00 74 1008.1
20260505084843 59 177 0.9 0.9 0.00 0.00 0.00 74 1008.1
20260505084341 59 176 0.9 1.7 0.00 0.00 0.00 74 1008.3
20260505083838 59 163 0.0 0.9 0.00 0.00 0.00 74 1008.1
20260505083336 59 181 1.7 1.7 0.00 0.00 0.00 74 1008.1
20260505082832 59 154 0.0 1.7 0.00 0.00 0.00 73 1008.3
20260505082328 60 173 0.0 0.9 0.00 0.00 0.00 72 1008.3
20260505081825 60 193 1.7 1.7 0.00 0.00 0.00 72 1008.5
20260505081322 60 195 1.7 1.7 0.00 0.00 0.00 72 1008.2
20260505080818 60 165 1.7 1.7 0.00 0.00 0.00 72 1008.4
20260505080314 60 180 0.0 0.0 0.00 0.00 0.00 73 1008.6
20260505075810 60 155 0.9 1.7 0.00 0.00 0.00 72 1008.5
20260505075307 59 187 0.9 1.7 0.00 0.00 0.00 73 1008.6
20260505074804 59 173 0.9 0.9 0.00 0.00 0.00 74 1008.7
20260505074301 59 195 0.9 0.9 0.00 0.00 0.00 74 1008.7
20260505073759 59 178 0.0 0.0 0.00 0.00 0.00 75 1008.9
20260505073257 58 173 0.0 0.0 0.00 0.00 0.00 76 1009.0
20260505072753 58 171 0.0 0.0 0.00 0.00 0.00 77 1009.1
20260505072249 58 178 0.0 0.0 0.00 0.00 0.00 78 1008.9
20260505071745 58 168 0.0 0.0 0.00 0.00 0.00 78 1008.9
20260505071242 57 168 1.7 1.7 0.00 0.00 0.00 78 1009.1
20260505070740 56 178 0.0 0.0 0.00 0.00 0.00 81 1009.0
20260505070236 56 185 0.9 1.7 0.00 0.00 0.00 82 1008.9
20260505065731 56 171 0.0 0.0 0.00 0.00 0.00 82 1009.1
20260505065229 56 171 0.0 0.0 0.00 0.00 0.00 81 1009.0
20260505064725 57 171 0.0 0.0 0.00 0.00 0.00 81 1008.9
20260505064223 57 171 0.0 0.0 0.00 0.00 0.00 79 1008.9
20260505063721 57 171 0.0 0.0 0.00 0.00 0.00 78 1008.9
20260505063217 58 171 0.0 0.0 0.00 0.00 0.00 77 1008.9
20260505062713 59 172 0.0 0.0 0.00 0.00 0.00 76 1009.0
20260505062211 59 172 0.0 0.0 0.00 0.00 0.00 75 1009.0
20260505061708 59 172 0.0 0.0 0.00 0.00 0.00 75 1008.8
20260505061206 59 171 0.9 0.9 0.00 0.00 0.00 76 1009.1
20260505060703 59 183 0.0 0.0 0.00 0.00 0.00 76 1009.3
20260505060200 59 183 0.0 0.0 0.00 0.00 0.00 75 1009.1
20260505055655 59 186 0.0 0.0 0.00 0.00 0.00 75 1009.3
20260505055151 59 173 0.0 0.0 0.00 0.00 0.00 74 1009.2
20260505054649 60 172 0.0 0.0 0.00 0.00 0.00 74 1009.3
20260505054147 60 174 0.0 0.0 0.00 0.00 0.00 73 1009.2
20260505053644 60 174 0.0 0.0 0.00 0.00 0.00 73 1009.1
20260505053140 60 177 0.0 0.0 0.00 0.00 0.00 72 1009.4
20260505052638 60 177 1.7 1.7 0.00 0.00 0.00 72 1009.2
20260505052135 61 173 0.0 0.0 0.00 0.00 0.00 72 1009.2
20260505051632 61 179 0.9 0.9 0.00 0.00 0.00 72 1009.3
20260505051130 61 184 0.0 0.9 0.00 0.00 0.00 72 1009.4
20260505050627 60 180 0.0 0.0 0.00 0.00 0.00 72 1009.1
20260505050126 60 178 0.0 0.0 0.00 0.00 0.00 72 1009.3